Theta_e
296 292 291 290 290 289 290 289 288 284 285 286 285 287 287 287 289 286 285 290 291 293 293 294 293 293 294 294 294 294 295 294 294 294 295 295 296 296
293 291 289 289 289 289 289 289 288 286 283 286 286 287 287 288 289 286 286 288 289 290 290 291 292 292 292 292 292 292 292 292 292 292 293 294 294 294
292 290 289 289 288 288 288 288 287 286 285 285 286 286 286 285 286 286 286 285 284 287 288 289 290 290 290 291 291 290 290 290 290 290 291 292 292 293
290 288 287 289 287 287 287 287 287 286 286 284 285 285 285 285 285 283 285 286 284 286 287 288 288 289 289 289 289 288 288 288 288 288 288 289 290 291
289 288 287 286 285 285 286 286 286 287 286 284 284 284 284 283 282 282 282 282 285 287 287 286 286 287 289 288 288 287 287 286 286 286 286 287 288 289
288 287 286 286 285 285 285 285 285 284 284 284 283 282 281 282 280 279 278 278 278 284 286 285 285 285 286 287 287 286 286 285 284 284 285 286 286 286
287 286 286 286 288 287 286 284 284 283 283 283 283 279 279 279 280 280 281 281 278 277 276 277 277 277 279 282 283 285 286 285 284 283 283 284 284 284
286 284 284 284 288 290 290 289 287 285 283 282 282 280 280 280 279 278 280 279 277 283 281 281 277 274 277 276 284 284 285 285 283 282 281 281 282 283
285 284 283 283 284 284 287 288 287 288 287 284 282 280 278 280 278 275 280 279 279 281 281 278 273 274 277 281 283 283 283 283 283 282 281 280 280 281
285 284 283 282 283 283 283 283 283 284 284 284 282 281 283 284 282 282 281 279 280 281 281 277 276 281 281 278 284 281 281 281 282 282 281 280 279 278
284 284 283 282 285 286 283 282 282 283 286 287 287 287 287 287 286 281 278 277 276 279 281 280 278 279 277 274 277 280 278 278 279 280 280 280 279 277
282 282 283 283 286 286 282 282 280 281 282 281 281 284 285 284 288 283 279 277 277 276 276 279 274 276 271 274 275 275 274 277 277 277 277 279 279 273
281 280 282 285 286 286 285 282 282 283 284 281 280 281 280 283 280 282 281 280 278 277 280 278 274 278 275 273 276 274 273 273 272 273 275 276 276 276
280 281 281 285 285 285 284 285 286 285 282 280 280 280 279 281 283 281 281 281 282 281 280 278 273 272 271 270 274 272 272 271 271 271 271 273 274 275
282 282 283 285 285 285 285 285 283 280 278 277 278 279 279 281 281 281 281 281 280 279 279 277 276 275 273 270 269 270 272 271 271 270 270 270 270 271
283 283 283 283 283 282 281 282 280 278 278 277 277 277 279 278 278 279 279 278 277 276 276 277 275 275 272 273 274 272 271 270 269 269 269 269 270 270
280 279 278 278 277 278 278 278 277 276 275 275 274 275 276 276 277 277 279 278 276 275 272 270 274 274 274 272 269 272 269 268 269 269 268 265 268 270
277 276 277 277 277 277 276 275 275 274 273 274 273 272 272 273 273 274 276 276 276 276 271 271 271 269 268 267 274 270 269 270 269 269 267 262 265 268
278 278 278 277 277 276 275 274 273 272 271 270 269 269 270 269 270 269 270 272 274 275 275 272 270 268 267 267 266 277 270 269 268 264 267 266 264 268
280 277 276 276 275 274 273 272 271 270 268 267 267 266 264 265 264 265 267 269 271 270 271 274 272 271 271 270 269 268 277 266 266 267 267 267 268 272
276 275 275 274 273 272 271 270 269 268 267 265 263 263 263 263 263 265 267 269 269 268 268 267 273 274 273 269 266 262 267 277 271 267 267 265 265 265
274 272 271 271 270 269 268 268 267 266 265 264 264 265 264 262 264 262 261 264 265 266 268 268 268 268 267 269 268 265 265 266 273 275 273 270 265 261
272 271 269 268 267 267 266 266 266 266 266 266 265 264 264 264 263 263 263 263 264 265 266 266 265 266 264 266 265 264 265 261 265 266 266 273 274 273
Wind_Speed
6 6 5 3 3 3 3 3 5 4 4 2 3 1 1 3 4 4 4 5 7 9 12 13 14 16 18 21 23 24 25 25 26 27 28 28 29 29
5 7 5 4 4 3 3 3 2 3 4 3 1 3 2 2 4 4 2 6 6 6 7 9 12 14 16 20 21 22 23 23 25 25 26 27 28 28
8 8 7 6 4 4 4 3 3 3 3 1 2 2 2 2 2 3 1 4 3 3 4 6 8 11 14 17 19 20 21 21 22 23 24 25 26 27
11 10 9 6 7 6 4 5 4 3 3 4 2 2 3 3 3 3 1 1 3 2 1 4 6 8 12 15 16 18 19 19 19 21 21 23 25 26
14 12 11 9 7 5 5 5 4 3 3 3 3 2 2 1 1 1 0 1 1 6 3 2 3 6 8 10 13 14 17 16 17 18 19 21 22 24
10 11 12 11 10 8 6 6 4 4 3 3 2 2 2 2 2 2 2 1 2 3 5 5 3 2 6 9 10 11 14 15 15 15 17 18 20 21
9 8 10 10 12 10 6 6 6 4 2 2 2 1 2 1 2 2 1 3 4 2 1 2 2 2 1 5 7 9 11 12 12 12 13 15 17 19
12 9 7 10 11 13 11 12 8 6 4 3 2 3 3 3 2 2 1 1 3 1 2 4 3 3 3 3 5 7 8 9 9 11 11 11 15 16
11 11 8 6 8 7 10 10 8 8 6 5 4 4 3 4 4 2 1 2 4 2 3 6 0 3 3 3 3 4 6 7 7 8 10 10 10 14
6 8 9 9 9 9 8 7 6 4 4 3 4 5 3 3 3 4 3 2 3 6 5 4 2 3 3 3 8 2 3 6 7 8 8 8 7 8
6 7 9 10 14 16 9 8 6 5 6 11 10 11 12 14 11 3 2 2 3 2 3 2 2 2 2 2 3 4 2 3 4 6 7 7 7 7
5 6 12 11 18 17 8 8 6 5 5 3 1 5 7 6 10 8 4 4 3 3 2 3 2 1 4 1 3 3 2 5 4 4 6 6 7 3
6 5 5 16 17 16 13 6 5 6 7 3 3 4 4 5 3 4 6 5 5 6 4 2 2 1 3 3 2 3 3 2 1 2 5 4 4 4
8 6 6 16 15 14 11 10 11 9 3 3 4 4 4 4 5 6 8 7 6 8 3 3 2 3 2 2 2 0 1 2 3 2 2 4 4 4
1 8 13 14 14 10 11 11 8 3 3 3 5 5 3 4 3 3 4 6 6 5 5 6 4 3 3 3 3 3 2 3 3 3 2 2 2 2
8 6 8 8 8 5 3 6 3 3 4 5 4 2 1 0 1 2 3 4 4 4 7 9 8 7 4 6 5 7 3 3 3 3 3 2 2 3
5 3 2 3 3 4 3 4 4 4 5 3 3 4 3 2 3 2 3 4 6 4 3 2 5 6 6 4 4 7 3 3 4 4 2 2 3 4
3 3 5 5 6 6 6 6 5 5 3 3 3 2 2 3 3 2 2 3 5 5 4 4 4 2 1 5 17 8 4 3 3 5 3 2 3 3
5 5 5 6 5 6 6 5 4 4 3 3 2 3 3 2 3 2 2 3 6 5 5 4 5 4 5 6 3 19 7 4 3 2 4 4 3 2
5 5 6 5 4 5 5 4 3 3 2 2 2 2 2 2 2 2 3 4 4 2 2 4 4 8 8 7 3 3 16 4 4 5 3 2 4 9
2 2 1 2 2 2 2 2 3 4 3 3 2 3 3 3 3 3 4 5 4 2 5 4 4 9 2 3 1 2 2 16 7 4 3 3 3 3
2 2 2 2 2 2 2 2 2 2 3 3 4 4 3 2 3 2 2 2 3 2 4 4 3 1 2 6 6 2 2 1 8 14 13 9 5 4
3 3 3 3 3 3 3 4 4 4 5 5 4 3 3 4 3 2 3 4 4 5 3 4 2 1 2 3 3 2 4 3 2 2 2 11 15 16
Wind_Direction
149 138 130 135 122 119 108 114 138 169 215 236 141 147 95 119 88 85 76 72 31 22 29 37 33 31 26 25 23 18 17 14 12 11 10 8 14 11
145 141 137 142 135 119 117 112 108 145 158 150 134 149 168 119 116 98 41 123 70 16 24 29 28 36 28 28 25 20 16 17 15 14 11 10 11 13
148 152 155 146 145 140 135 131 147 144 150 94 121 156 129 142 96 81 11 146 123 5 22 24 30 34 30 32 27 22 18 17 18 16 12 12 12 12
163 155 160 155 154 154 157 167 162 160 142 172 163 165 165 168 149 126 319 69 154 251 346 12 25 23 32 35 28 24 20 18 16 17 14 15 14 14
165 165 162 156 160 160 165 166 164 152 156 153 189 171 180 165 122 106 304 300 241 208 223 282 5 30 24 34 32 21 24 17 19 15 17 18 17 15
165 164 160 163 169 166 169 169 163 164 157 165 180 209 184 217 119 158 338 298 294 282 228 196 223 7 3 19 12 14 17 21 17 18 12 19 21 18
160 155 162 157 161 167 160 169 161 156 143 173 193 190 209 147 156 209 254 313 284 205 249 285 227 218 172 340 335 356 7 18 18 17 16 13 23 21
162 147 156 142 156 158 152 171 169 172 168 149 205 198 209 172 170 170 199 323 312 281 277 281 176 245 225 179 307 351 353 13 26 17 16 18 20 24
165 157 146 149 143 144 163 163 174 188 184 162 191 211 198 185 153 177 225 233 260 293 3 287 299 230 210 211 231 329 347 347 18 25 16 14 19 23
163 159 152 151 160 157 160 171 185 191 197 197 185 203 196 189 205 182 172 230 263 261 211 255 281 264 189 204 206 209 334 355 349 1 21 14 11 15
142 153 154 155 172 171 162 173 182 192 216 225 226 231 228 225 210 143 173 193 257 235 182 230 263 287 247 201 196 188 258 322 325 338 341 9 17 20
126 146 155 157 172 179 169 175 181 183 193 197 226 250 248 250 247 181 180 192 231 269 259 200 262 62 332 308 178 178 222 252 282 302 327 345 16 23
150 169 161 168 173 184 182 180 186 167 192 184 209 225 219 221 221 187 193 206 208 230 219 173 226 208 193 257 213 187 181 227 232 296 303 310 341 32
179 165 165 176 179 187 193 201 215 226 159 182 218 224 216 211 207 204 205 211 220 230 193 173 215 176 172 279 254 127 208 203 188 218 239 279 302 323
191 155 162 176 184 195 203 214 221 170 153 201 234 229 209 230 173 162 199 212 215 217 203 197 208 211 185 210 212 203 210 221 184 176 196 228 237 264
149 153 163 168 179 172 187 227 161 181 195 221 230 212 175 193 221 183 197 197 213 226 222 210 210 208 227 237 238 255 197 216 178 185 186 208 223 229
124 127 142 135 169 196 186 195 181 184 210 210 212 223 208 201 228 216 225 218 230 210 221 233 210 206 226 223 235 241 212 213 187 174 164 248 233 216
148 179 186 189 200 202 204 203 194 197 196 193 186 188 199 213 223 215 230 252 266 237 204 176 169 170 278 270 220 240 226 219 174 172 140 170 262 236
192 197 202 199 199 200 198 193 188 192 148 158 182 227 220 222 214 192 213 246 257 258 225 177 173 185 216 247 280 211 220 199 150 158 178 187 211 274
210 199 206 199 194 199 189 193 181 163 150 173 211 215 228 211 244 236 226 236 250 271 296 234 187 197 218 237 210 243 222 169 167 196 193 189 240 266
197 205 93 160 189 224 191 174 191 193 176 166 186 204 223 206 240 235 244 254 271 255 265 253 252 221 216 76 56 288 280 223 194 155 172 162 181 210
128 153 184 202 198 189 180 190 210 216 219 214 223 224 227 217 240 232 252 261 256 268 284 282 270 210 156 200 238 202 187 262 239 216 208 194 164 218
189 181 159 171 162 172 187 203 209 216 213 214 210 208 217 236 227 241 254 255 257 263 256 269 209 165 204 196 205 225 207 201 169 200 286 243 241 247